Regional Weather Roundup
Issued by NWS

Home | Current Version | Previous Version | Text Only | Print | Product List | Glossary Off
Versions: 1 2 3 4 5 6 7 8 9 10 11 12 13 14 15 16 17 18 19 20 21 22 23 24 25 26 27 28 29 30 31 32 33 34 35 36 37 38 39 40 41 42 43 44 45 46 47 48 49 50

000
ASUS43 KLOT 251610
RWRIL

ILLINOIS REGIONAL WEATHER ROUNDUP
NATIONAL WEATHER SERVICE CHICAGO/ROMEOVILLE IL
1000 AM CST THU DEC 25 2014

NOTE: "FAIR" INDICATES FEW OR NO CLOUDS BELOW 12,000 FEET WITH NO
SIGNIFICANT WEATHER AND/OR OBSTRUCTIONS TO VISIBILITY.

* THESE STATIONS ARE NOT UNDER NWS QUALITY CONTROL. THEY ALSO MAY NOT
  REPORT WEATHER SUCH AS PRECIPITATION OR FOG.

ILZ001-002-007-009-015-016-024-251700-
NORTHWEST ILLINOIS

CITY           SKY/WX    TMP DP  RH WIND       PRES   REMARKS
MOLINE         SUNNY     37  30  75 S14       29.90R WCI  28
STERLING*      PTSUNNY   37  28  70 W3        29.93R
SAVANNA*       MOSUNNY   37  30  75 S12       29.90S WCI  30
$$

ILZ003-004-008-010-011-017-018-251700-
NORTH CENTRAL ILLINOIS

CITY           SKY/WX    TMP DP  RH WIND       PRES   REMARKS
ROCKFORD       CLOUDY    35  27  72 SW13      29.95R WCI  26
FREEPORT*      CLOUDY    33  29  85 SW10      29.92S WCI  25
ROCHELLE*      CLOUDY    34  30  86 SW13      29.94R WCI  25
DE KALB*       CLOUDY    32  28  83 SW14      29.95R WCI  22
PERU*          CLOUDY    38  32  79 SW15      29.97R WCI  29
$$

ILZ005-006-012>014-019>023-251700-
NORTHEAST ILLINOIS

CITY           SKY/WX    TMP DP  RH WIND       PRES   REMARKS
CHICAGO-OHARE  CLOUDY    35  27  72 SW14G26   29.95R WCI  26
CHICAGO-MIDWAY CLOUDY    37  29  72 SW17G24   29.97R WCI  27
AURORA         CLOUDY    36  28  73 SW14      29.97R WCI  27
LANSING*       CLOUDY    35  30  81 SW14      29.99R WCI  26
JOLIET*        CLOUDY    36  29  78 SW9       29.98R WCI  29
WAUKEGAN       CLOUDY    34  27  75 SW13G26   29.92R WCI  25
DUPAGE AIRPORT CLOUDY    35  28  75 SW15      29.95R WCI  25
KANKAKEE*      CLOUDY    37  32  84 SW14      30.01R WCI  28
WHEELING       CLOUDY    35  27  72 SW13G22   29.96R WCI  26
MORRIS*        CLOUDY    37  32  81 SW12G18   29.97R WCI  29
ROMEOVILLE*    CLOUDY    36  29  78 W16       29.98R WCI  26
NORTHERLY ISL    N/A     36  28  73 S9          N/A  WCI  29
$$

LMZ740>746-251700-
SOUTHERN LAKE MICHIGAN

STATION/POSITION SKY/WX   TEMP    WIND        PRES    VSBY  WAVE
                          AIR SEA DIR/SP/G                  HT/PER
                          (F)     (DEG/KT/KT) (MB)    (MI)  (FT/S)
WAUKEGAN HARBOR            34                   N/A
HARRISON CRIB              35     220/ 20/ 27   N/A
BURNHAM HARBOR             36     230/ 11/ 15   N/A
CALUMET HARBOR             35     210/ 13/ 19 1013.6R
MICHIGAN CITY              35     210/ 19/ 23   N/A
$$

ILZ025>027-034>036-040-047-049-050-058-095>099-251700-
WEST-CENTRAL ILLINOIS

CITY           SKY/WX    TMP DP  RH WIND       PRES   REMARKS
QUINCY         MOSUNNY   38  31  76 S12       29.94R WCI  30
GALESBURG*     SUNNY     37  32  81 S14G20    29.94R WCI  29
MACOMB*        MOSUNNY   37  32  82 S14G23    29.97R WCI  29
JACKSONVILLE*  SUNNY     42  33  72 S13G18    29.99R
PITTSFIELD*    SUNNY     39  33  77 SW13      29.99R WCI  32
$$

ILZ028>032-037-038-041>044-048-051>054-059>061-251700-
CENTRAL ILLINOIS

CITY           SKY/WX    TMP DP  RH WIND       PRES   REMARKS
PONTIAC        CLOUDY    38  32  80 SW15      30.00R WCI  29
BLOOMINGTON    PTSUNNY   37  32  82 SW18      30.00R WCI  27
DECATUR        SUNNY     40  33  76 S16       30.04R
PEORIA         SUNNY     40  31  70 S16G22    29.98R
LACON*         SUNNY     38  29  72 S9        29.97R WCI  31
LINCOLN*       SUNNY     40  32  73 S12G20    30.01R
SPRINGFIELD    SUNNY     41  33  73 S18G28    30.01R
TAYLORVILLE    SUNNY     37  32  81 S14       30.04R WCI  29
$$

ILZ033-039-045-046-055>057-062-063-251700-
EAST-CENTRAL ILLINOIS

CITY           SKY/WX    TMP DP  RH WIND       PRES   REMARKS
CHAMPAIGN      PTSUNNY   38  31  76 SW18G28   30.04R WCI  28
DANVILLE*      CLOUDY    36  32  84 SW14      30.02R WCI  27
RANTOUL*       CLOUDY    38  34  85 SW14      30.03R WCI  30
MATTOON        PTSUNNY   37  30  75 SW9G21    30.06R WCI  30
PARIS*         CLOUDY    38  33  85 SW14      30.08R WCI  29
$$

ILZ079-100>102-251700-
SOUTHWEST ILLINOIS

CITY           SKY/WX    TMP DP  RH WIND       PRES   REMARKS
ALTON          SUNNY     39  32  75 S12       30.05R WCI  32
BELLEVILLE     SUNNY     41  35  79 S13       30.06R
CAHOKIA*       SUNNY     41  33  73 S10       30.06R
SPARTA*        SUNNY     40  32  75 S10       30.09R
$$

ILZ064>066-069>071-074>076-080>082-084>086-088>090-092>094-251700-
SOUTH-CENTRAL ILLINOIS

CITY           SKY/WX    TMP DP  RH WIND       PRES   REMARKS
CARBONDALE     SUNNY     42  32  67 SW14      30.13R
CAIRO*         SUNNY     45  37  73 S9        30.16R
EFFINGHAM*     PTSUNNY   40  31  68 S12G17    30.10R
MARION         SUNNY     43  36  75 S12       30.13R
MT. VERNON     SUNNY     43  34  70 SW15      30.12R
CENTRALIA*     SUNNY     41  33  73 S14       30.09R
SALEM*         SUNNY     42  34  72 S14       30.09R
METROPOLIS*    SUNNY     44  35  71 S10G17    30.15R
$$

ILZ067-068-072-073-078-083-087-091-251700-
SOUTHEAST ILLINOIS

CITY           SKY/WX    TMP DP  RH WIND       PRES   REMARKS
LAWRENCEVILLE  CLOUDY    40  32  73 SW15      30.13R
FLORA*         SUNNY     41  33  75 S10       30.11R
FAIRFIELD*     SUNNY     41  34  75 SW14      30.12R
HARRISBURG*    SUNNY     42  35  74 SW15G21   30.16R
ROBINSON*      CLOUDY    38  33  80 SW15      30.13R WCI  30
CARMI*         SUNNY     44  37  76 S12       30.14R
$$

ABBREVIATIONS USED IN REMARKS
   TC - TEMPERATURE IN CELSIUS
  WCI - WIND CHILL INDEX
   HX - HEAT INDEX
  VSB - VISIBILITY
$$



USA.gov is the U.S. government's official web portal to all federal, state and local government web resources and services.